Time,TemperatureF,DewpointF,PressureIn,WindDirection,WindDirectionDegrees,WindSpeedMPH,WindSpeedGustMPH,Humidity,HourlyPrecipIn,Conditions,Clouds,dailyrainin,SoftwareType,DateUTC
2013-01-11 00:03:00,43.5,32.2,30.24,NNW,345,10.0,12.0,64,0.00,,,0.00,meteohub,2013-01-11 08:03:00,
2013-01-11 00:08:00,43.5,32.2,30.24,WNW,303,8.0,14.0,64,0.00,,,0.00,meteohub,2013-01-11 08:08:00,
2013-01-11 00:13:00,43.7,32.4,30.24,NNW,347,8.0,14.0,64,0.00,,,0.00,meteohub,2013-01-11 08:13:00,
2013-01-11 00:18:00,43.9,32.2,30.24,NNW,339,5.0,14.0,63,0.00,,,0.00,meteohub,2013-01-11 08:18:00,
2013-01-11 00:23:00,43.9,32.2,30.24,NNW,338,4.0,13.0,63,0.00,,,0.00,meteohub,2013-01-11 08:23:00,
2013-01-11 00:28:00,43.7,32.0,30.24,NNW,332,3.0,13.0,63,0.00,,,0.00,meteohub,2013-01-11 08:28:00,
2013-01-11 00:34:00,43.5,31.8,30.24,NW,325,3.0,12.0,63,0.00,,,0.00,meteohub,2013-01-11 08:34:00,
2013-01-11 00:39:00,43.5,31.8,30.25,NNW,332,5.0,10.0,63,0.00,,,0.00,meteohub,2013-01-11 08:39:00,
2013-01-11 00:44:00,43.5,31.8,30.24,NNW,337,3.0,10.0,63,0.00,,,0.00,meteohub,2013-01-11 08:44:00,
2013-01-11 00:49:00,43.5,31.8,30.24,NW,316,3.0,7.0,63,0.00,,,0.00,meteohub,2013-01-11 08:49:00,
2013-01-11 00:54:00,43.3,31.6,30.24,NW,320,1.0,9.0,63,0.00,,,0.00,meteohub,2013-01-11 08:54:00,
2013-01-11 00:59:00,43.3,31.6,30.24,NW,316,6.0,9.0,63,0.00,,,0.00,meteohub,2013-01-11 08:59:00,
2013-01-11 01:04:00,43.3,32.0,30.24,NW,325,6.0,6.0,64,0.00,,,0.00,meteohub,2013-01-11 09:04:00,
2013-01-11 01:09:00,43.3,32.0,30.24,NW,319,5.0,9.0,64,0.00,,,0.00,meteohub,2013-01-11 09:09:00,
2013-01-11 01:14:00,43.3,32.0,30.24,WNW,303,7.0,9.0,64,0.00,,,0.00,meteohub,2013-01-11 09:14:00,
2013-01-11 01:19:00,43.3,32.4,30.23,NW,307,9.0,12.0,65,0.00,,,0.00,meteohub,2013-01-11 09:19:00,
2013-01-11 01:24:00,43.5,32.5,30.23,NNW,332,7.0,12.0,65,0.00,,,0.00,meteohub,2013-01-11 09:24:00,
2013-01-11 01:29:00,43.5,32.5,30.23,NW,309,6.0,13.0,65,0.00,,,0.00,meteohub,2013-01-11 09:29:00,
2013-01-11 01:34:00,43.5,32.5,30.24,NNW,330,5.0,13.0,65,0.00,,,0.00,meteohub,2013-01-11 09:34:00,
2013-01-11 01:39:00,43.5,32.5,30.24,NW,312,10.0,13.0,65,0.00,,,0.00,meteohub,2013-01-11 09:39:00,
2013-01-11 01:44:00,43.5,32.5,30.24,NNW,335,9.0,13.0,65,0.00,,,0.00,meteohub,2013-01-11 09:44:00,
2013-01-11 01:49:00,43.5,32.5,30.24,NNW,344,11.0,17.0,65,0.00,,,0.00,meteohub,2013-01-11 09:49:00,
2013-01-11 01:54:00,43.2,32.5,30.24,North,354,4.0,17.0,66,0.00,,,0.00,meteohub,2013-01-11 09:54:00,
2013-01-11 01:59:00,43.0,32.7,30.24,NNW,343,6.0,17.0,67,0.00,,,0.00,meteohub,2013-01-11 09:59:00,
2013-01-11 02:04:00,42.8,32.5,30.24,North,349,2.0,14.0,67,0.00,,,0.00,meteohub,2013-01-11 10:04:00,
2013-01-11 02:09:00,42.6,32.7,30.24,NNE,14,7.0,12.0,68,0.00,,,0.00,meteohub,2013-01-11 10:09:00,
2013-01-11 02:14:00,42.4,33.1,30.24,North,4,4.0,12.0,69,0.00,,,0.00,meteohub,2013-01-11 10:14:00,
2013-01-11 02:19:00,42.4,33.4,30.24,North,354,8.0,12.0,70,0.00,,,0.00,meteohub,2013-01-11 10:19:00,
2013-01-11 02:24:00,42.4,33.1,30.24,NNW,332,9.0,10.0,69,0.00,,,0.00,meteohub,2013-01-11 10:24:00,
2013-01-11 02:29:00,42.4,33.1,30.24,NNW,345,6.0,12.0,69,0.00,,,0.00,meteohub,2013-01-11 10:29:00,
2013-01-11 02:34:00,42.4,33.1,30.24,NNW,339,6.0,12.0,69,0.00,,,0.00,meteohub,2013-01-11 10:34:00,
2013-01-11 02:39:00,42.4,33.1,30.24,NNW,347,4.0,12.0,69,0.00,,,0.00,meteohub,2013-01-11 10:39:00,
2013-01-11 02:44:00,42.4,33.1,30.24,North,4,5.0,9.0,69,0.00,,,0.00,meteohub,2013-01-11 10:44:00,
2013-01-11 02:50:00,42.3,33.3,30.25,North,8,3.0,9.0,70,0.00,,,0.00,meteohub,2013-01-11 10:50:00,
2013-01-11 02:55:00,42.3,33.6,30.25,NNW,346,1.0,9.0,71,0.00,,,0.00,meteohub,2013-01-11 10:55:00,
2013-01-11 03:00:00,42.3,33.3,30.24,NNW,328,5.0,9.0,70,0.00,,,0.00,meteohub,2013-01-11 11:00:00,
2013-01-11 03:05:00,42.4,33.4,30.25,North,350,5.0,9.0,70,0.00,,,0.00,meteohub,2013-01-11 11:05:00,
2013-01-11 03:10:00,42.4,33.4,30.24,North,354,4.0,9.0,70,0.00,,,0.00,meteohub,2013-01-11 11:10:00,
2013-01-11 03:15:00,42.4,33.1,30.25,North,354,8.0,9.0,69,0.00,,,0.00,meteohub,2013-01-11 11:15:00,
2013-01-11 03:20:00,42.6,32.4,30.25,North,8,5.0,12.0,67,0.00,,,0.00,meteohub,2013-01-11 11:20:00,
2013-01-11 03:25:00,42.4,33.1,30.25,NNE,24,3.0,12.0,69,0.00,,,0.00,meteohub,2013-01-11 11:25:00,
2013-01-11 03:30:00,42.3,33.3,30.25,North,350,4.0,10.0,70,0.00,,,0.00,meteohub,2013-01-11 11:30:00,
2013-01-11 03:35:00,42.1,33.1,30.25,NNE,23,1.0,7.0,70,0.00,,,0.00,meteohub,2013-01-11 11:35:00,
2013-01-11 03:40:00,41.9,32.9,30.25,NNE,23,2.0,7.0,70,0.00,,,0.00,meteohub,2013-01-11 11:40:00,
2013-01-11 03:45:00,41.9,32.9,30.25,North,354,5.0,9.0,70,0.00,,,0.00,meteohub,2013-01-11 11:45:00,
2013-01-11 03:50:00,41.7,33.1,30.25,NNE,14,4.0,9.0,71,0.00,,,0.00,meteohub,2013-01-11 11:50:00,
2013-01-11 03:55:00,41.7,33.1,30.25,North,11,3.0,9.0,71,0.00,,,0.00,meteohub,2013-01-11 11:55:00,
2013-01-11 04:00:00,41.5,33.3,30.25,NNE,25,6.0,8.0,72,0.00,,,0.00,meteohub,2013-01-11 12:00:00,
2013-01-11 04:05:00,41.5,33.3,30.25,NNE,13,5.0,8.0,72,0.00,,,0.00,meteohub,2013-01-11 12:05:00,
2013-01-11 04:10:00,41.4,32.7,30.25,NNE,31,3.0,8.0,71,0.00,,,0.00,meteohub,2013-01-11 12:10:00,
2013-01-11 04:15:00,41.4,33.1,30.25,NNE,31,1.0,7.0,72,0.00,,,0.00,meteohub,2013-01-11 12:15:00,
2013-01-11 04:20:00,41.2,32.9,30.25,North,9,2.0,7.0,72,0.00,,,0.00,meteohub,2013-01-11 12:20:00,
2013-01-11 04:26:00,41.2,32.9,30.25,NNE,21,3.0,7.0,72,0.00,,,0.00,meteohub,2013-01-11 12:26:00,
2013-01-11 04:31:00,41.0,32.7,30.25,NE,51,5.0,6.0,72,0.00,,,0.00,meteohub,2013-01-11 12:31:00,
2013-01-11 04:36:00,41.2,32.5,30.25,NNE,33,5.0,8.0,71,0.00,,,0.00,meteohub,2013-01-11 12:36:00,
2013-01-11 04:41:00,41.5,32.5,30.25,NNE,13,7.0,8.0,70,0.00,,,0.00,meteohub,2013-01-11 12:41:00,
2013-01-11 04:46:00,41.7,32.0,30.25,NNW,343,7.0,10.0,68,0.00,,,0.00,meteohub,2013-01-11 12:46:00,
2013-01-11 04:51:00,41.9,31.8,30.25,North,350,10.0,10.0,67,0.00,,,0.00,meteohub,2013-01-11 12:51:00,
2013-01-11 04:56:00,42.1,32.0,30.25,NNW,339,7.0,12.0,67,0.00,,,0.00,meteohub,2013-01-11 12:56:00,
2013-01-11 05:01:00,41.7,31.6,30.26,NNW,348,10.0,13.0,67,0.00,,,0.00,meteohub,2013-01-11 13:01:00,
2013-01-11 05:06:00,41.5,31.8,30.26,NNE,18,7.0,13.0,68,0.00,,,0.00,meteohub,2013-01-11 13:06:00,
2013-01-11 05:11:00,41.5,31.8,30.26,North,359,8.0,13.0,68,0.00,,,0.00,meteohub,2013-01-11 13:11:00,
2013-01-11 05:16:00,41.4,31.6,30.26,North,8,5.0,12.0,68,0.00,,,0.00,meteohub,2013-01-11 13:16:00,
2013-01-11 05:21:00,41.4,32.0,30.27,North,354,7.0,12.0,69,0.00,,,0.00,meteohub,2013-01-11 13:21:00,
2013-01-11 05:26:00,41.2,31.8,30.26,North,4,7.0,12.0,69,0.00,,,0.00,meteohub,2013-01-11 13:26:00,
2013-01-11 05:31:00,41.0,31.6,30.27,North,8,4.0,11.0,69,0.00,,,0.00,meteohub,2013-01-11 13:31:00,
2013-01-11 05:36:00,40.8,31.8,30.27,North,354,2.0,11.0,70,0.00,,,0.00,meteohub,2013-01-11 13:36:00,
2013-01-11 05:41:00,40.8,31.8,30.27,North,350,5.0,9.0,70,0.00,,,0.00,meteohub,2013-01-11 13:41:00,
2013-01-11 05:46:00,40.6,32.0,30.27,North,359,5.0,9.0,71,0.00,,,0.00,meteohub,2013-01-11 13:46:00,
2013-01-11 05:51:00,40.6,32.0,30.27,North,354,3.0,9.0,71,0.00,,,0.00,meteohub,2013-01-11 13:51:00,
2013-01-11 05:56:00,40.6,32.0,30.27,NNE,18,4.0,10.0,71,0.00,,,0.00,meteohub,2013-01-11 13:56:00,
2013-01-11 06:01:00,40.5,31.8,30.27,North,9,7.0,10.0,71,0.00,,,0.00,meteohub,2013-01-11 14:01:00,
2013-01-11 06:06:00,40.5,31.8,30.27,NNE,26,4.0,10.0,71,0.00,,,0.00,meteohub,2013-01-11 14:06:00,
2013-01-11 06:11:00,40.6,32.0,30.27,NNE,29,6.0,10.0,71,0.00,,,0.00,meteohub,2013-01-11 14:11:00,
2013-01-11 06:16:00,40.6,32.0,30.27,NNE,18,6.0,10.0,71,0.00,,,0.00,meteohub,2013-01-11 14:16:00,
2013-01-11 06:21:00,40.6,32.0,30.27,North,10,5.0,8.0,71,0.00,,,0.00,meteohub,2013-01-11 14:21:00,
2013-01-11 06:26:00,40.6,31.6,30.27,NNE,22,7.0,9.0,70,0.00,,,0.00,meteohub,2013-01-11 14:26:00,
2013-01-11 06:31:00,40.6,32.0,30.27,North,354,4.0,9.0,71,0.00,,,0.00,meteohub,2013-01-11 14:31:00,
2013-01-11 06:37:00,40.6,32.0,30.27,NNE,27,6.0,9.0,71,0.00,,,0.00,meteohub,2013-01-11 14:37:00,
2013-01-11 06:42:00,40.6,32.0,30.27,NNE,29,4.0,8.0,71,0.00,,,0.00,meteohub,2013-01-11 14:42:00,
2013-01-11 06:47:00,40.5,32.2,30.27,NE,39,4.0,8.0,72,0.00,,,0.00,meteohub,2013-01-11 14:47:00,
2013-01-11 06:52:00,40.3,32.0,30.28,NNE,30,4.0,7.0,72,0.00,,,0.00,meteohub,2013-01-11 14:52:00,
2013-01-11 06:57:00,39.9,32.0,30.28,NNE,25,2.0,5.0,73,0.00,,,0.00,meteohub,2013-01-11 14:57:00,
2013-01-11 07:02:00,39.9,32.0,30.28,North,9,4.0,5.0,73,0.00,,,0.00,meteohub,2013-01-11 15:02:00,
2013-01-11 07:07:00,39.9,32.0,30.28,North,359,3.0,7.0,73,0.00,,,0.00,meteohub,2013-01-11 15:07:00,
2013-01-11 07:12:00,39.9,32.0,30.28,North,350,0.0,7.0,73,0.00,,,0.00,meteohub,2013-01-11 15:12:00,
2013-01-11 07:17:00,39.7,31.8,30.28,North,354,0.0,7.0,73,0.00,,,0.00,meteohub,2013-01-11 15:17:00,
2013-01-11 07:22:00,39.6,31.6,30.29,North,354,0.0,4.0,73,0.00,,,0.00,meteohub,2013-01-11 15:22:00,
2013-01-11 07:27:00,39.6,32.0,30.29,North,354,0.0,1.0,74,0.00,,,0.00,meteohub,2013-01-11 15:27:00,
2013-01-11 07:32:00,39.6,32.0,30.29,North,359,0.0,1.0,74,0.00,,,0.00,meteohub,2013-01-11 15:32:00,
2013-01-11 07:37:00,39.6,32.0,30.29,North,359,0.0,2.0,74,0.00,,,0.00,meteohub,2013-01-11 15:37:00,
2013-01-11 07:42:00,39.6,32.0,30.30,North,359,1.0,2.0,74,0.00,,,0.00,meteohub,2013-01-11 15:42:00,
2013-01-11 07:47:00,39.6,32.4,30.30,North,359,2.0,2.0,75,0.00,,,0.00,meteohub,2013-01-11 15:47:00,
2013-01-11 07:52:00,39.6,32.4,30.30,North,359,0.0,3.0,75,0.00,,,0.00,meteohub,2013-01-11 15:52:00,
2013-01-11 07:57:00,39.6,32.4,30.30,North,350,1.0,3.0,75,0.00,,,0.00,meteohub,2013-01-11 15:57:00,
2013-01-11 08:02:00,39.6,32.4,30.30,North,359,0.0,3.0,75,0.00,,,0.00,meteohub,2013-01-11 16:02:00,
2013-01-11 08:07:00,39.7,32.5,30.30,North,354,2.0,3.0,75,0.00,,,0.00,meteohub,2013-01-11 16:07:00,
2013-01-11 08:12:00,39.9,32.9,30.30,North,349,0.0,4.0,76,0.00,,,0.00,meteohub,2013-01-11 16:12:00,
2013-01-11 08:17:00,40.5,33.4,30.30,North,349,1.0,4.0,76,0.00,,,0.00,meteohub,2013-01-11 16:17:00,
2013-01-11 08:22:00,40.8,33.4,30.30,North,359,1.0,4.0,75,0.00,,,0.00,meteohub,2013-01-11 16:22:00,
2013-01-11 08:27:00,41.4,33.6,30.30,North,359,0.0,4.0,74,0.00,,,0.00,meteohub,2013-01-11 16:27:00,
2013-01-11 08:32:00,41.5,33.8,30.30,North,359,0.0,4.0,74,0.00,,,0.00,meteohub,2013-01-11 16:32:00,
2013-01-11 08:37:00,41.7,34.0,30.31,North,350,0.0,4.0,74,0.00,,,0.00,meteohub,2013-01-11 16:37:00,
2013-01-11 08:42:00,41.9,33.8,30.31,North,354,0.0,3.0,73,0.00,,,0.00,meteohub,2013-01-11 16:42:00,
2013-01-11 08:47:00,42.1,34.0,30.31,North,359,0.0,3.0,73,0.00,,,0.00,meteohub,2013-01-11 16:47:00,
2013-01-11 08:52:00,42.1,34.0,30.31,North,359,3.0,3.0,73,0.00,,,0.00,meteohub,2013-01-11 16:52:00,
2013-01-11 08:57:00,42.3,33.8,30.31,North,359,0.0,3.0,72,0.00,,,0.00,meteohub,2013-01-11 16:57:00,
2013-01-11 09:02:00,42.3,33.8,30.31,North,359,1.0,4.0,72,0.00,,,0.00,meteohub,2013-01-11 17:02:00,
2013-01-11 09:08:00,42.3,33.8,30.31,North,354,1.0,4.0,72,0.00,,,0.00,meteohub,2013-01-11 17:08:00,
2013-01-11 09:13:00,42.3,33.8,30.31,North,359,2.0,4.0,72,0.00,,,0.00,meteohub,2013-01-11 17:13:00,
2013-01-11 09:18:00,42.3,34.2,30.31,North,359,2.0,4.0,73,0.00,,,0.00,meteohub,2013-01-11 17:18:00,
2013-01-11 09:23:00,42.3,33.8,30.31,NE,36,1.0,5.0,72,0.00,,,0.00,meteohub,2013-01-11 17:23:00,
2013-01-11 09:28:00,42.4,34.0,30.31,NE,36,2.0,5.0,72,0.00,,,0.00,meteohub,2013-01-11 17:28:00,
2013-01-11 09:33:00,42.4,34.0,30.30,NE,37,1.0,5.0,72,0.00,,,0.00,meteohub,2013-01-11 17:33:00,
2013-01-11 09:38:00,42.6,33.8,30.30,NNE,29,0.0,4.0,71,0.00,,,0.00,meteohub,2013-01-11 17:38:00,
2013-01-11 09:43:00,43.0,33.8,30.31,NNE,27,0.0,4.0,70,0.00,,,0.00,meteohub,2013-01-11 17:43:00,
2013-01-11 09:48:00,43.2,33.6,30.31,NNE,27,1.0,4.0,69,0.00,,,0.00,meteohub,2013-01-11 17:48:00,
2013-01-11 09:53:00,43.3,33.4,30.31,NNE,27,0.0,4.0,68,0.00,,,0.00,meteohub,2013-01-11 17:53:00,
2013-01-11 09:58:00,43.5,33.6,30.31,NE,34,3.0,4.0,68,0.00,,,0.00,meteohub,2013-01-11 17:58:00,
2013-01-11 10:03:00,43.5,33.3,30.31,NE,53,2.0,4.0,67,0.00,,,0.00,meteohub,2013-01-11 18:03:00,
2013-01-11 10:08:00,43.7,33.4,30.31,NE,54,0.0,4.0,67,0.00,,,0.00,meteohub,2013-01-11 18:08:00,
2013-01-11 10:13:00,43.9,33.3,30.31,NE,53,0.0,4.0,66,0.00,,,0.00,meteohub,2013-01-11 18:13:00,
2013-01-11 10:18:00,44.2,33.6,30.31,NE,52,0.0,3.0,66,0.00,,,0.00,meteohub,2013-01-11 18:18:00,
2013-01-11 10:23:00,44.4,33.4,30.31,NE,49,1.0,3.0,65,0.00,,,0.00,meteohub,2013-01-11 18:23:00,
2013-01-11 10:28:00,44.4,33.4,30.31,WNW,297,0.0,1.0,65,0.00,,,0.00,meteohub,2013-01-11 18:28:00,
2013-01-11 10:33:00,44.6,33.6,30.31,WNW,297,0.0,4.0,65,0.00,,,0.00,meteohub,2013-01-11 18:33:00,
2013-01-11 10:38:00,44.8,33.3,30.31,WNW,297,3.0,4.0,64,0.00,,,0.00,meteohub,2013-01-11 18:38:00,
2013-01-11 10:43:00,44.6,33.3,30.30,NW,312,3.0,4.0,64,0.00,,,0.00,meteohub,2013-01-11 18:43:00,
2013-01-11 10:48:00,44.8,33.3,30.30,NW,312,3.0,8.0,64,0.00,,,0.00,meteohub,2013-01-11 18:48:00,
2013-01-11 10:53:00,45.0,33.1,30.30,NW,313,2.0,8.0,63,0.00,,,0.00,meteohub,2013-01-11 18:53:00,
2013-01-11 10:58:00,45.0,33.1,30.29,WSW,258,0.0,8.0,63,0.00,,,0.00,meteohub,2013-01-11 18:58:00,
2013-01-11 11:03:00,45.1,33.3,30.29,West,262,0.0,5.0,63,0.00,,,0.00,meteohub,2013-01-11 19:03:00,
2013-01-11 11:08:00,45.5,33.3,30.29,WSW,258,0.0,5.0,62,0.00,,,0.00,meteohub,2013-01-11 19:08:00,
2013-01-11 11:13:00,45.9,33.6,30.29,West,260,3.0,5.0,62,0.00,,,0.00,meteohub,2013-01-11 19:13:00,
2013-01-11 11:18:00,45.9,33.6,30.28,West,260,0.0,3.0,62,0.00,,,0.00,meteohub,2013-01-11 19:18:00,
2013-01-11 11:23:00,46.0,33.8,30.28,West,262,3.0,5.0,62,0.00,,,0.00,meteohub,2013-01-11 19:23:00,
2013-01-11 11:28:00,46.2,34.0,30.28,West,262,0.0,6.0,62,0.00,,,0.00,meteohub,2013-01-11 19:28:00,
2013-01-11 11:33:00,46.4,34.2,30.27,South,191,1.0,6.0,62,0.00,,,0.00,meteohub,2013-01-11 19:33:00,
2013-01-11 11:39:00,46.4,34.2,30.27,WSW,241,0.0,6.0,62,0.00,,,0.00,meteohub,2013-01-11 19:39:00,
2013-01-11 11:44:00,46.8,34.9,30.27,SSE,167,2.0,5.0,63,0.00,,,0.00,meteohub,2013-01-11 19:44:00,
2013-01-11 11:49:00,46.6,34.3,30.26,SW,223,3.0,7.0,62,0.00,,,0.00,meteohub,2013-01-11 19:49:00,
2013-01-11 11:54:00,46.6,34.7,30.26,SSW,206,4.0,7.0,63,0.00,,,0.00,meteohub,2013-01-11 19:54:00,
2013-01-11 11:59:00,46.6,35.1,30.26,SSW,197,4.0,7.0,64,0.00,,,0.00,meteohub,2013-01-11 19:59:00,
2013-01-11 12:04:00,46.8,35.2,30.25,South,172,2.0,7.0,64,0.00,,,0.00,meteohub,2013-01-11 20:04:00,
2013-01-11 12:09:00,46.8,35.2,30.25,South,187,6.0,7.0,64,0.00,,,0.00,meteohub,2013-01-11 20:09:00,
2013-01-11 12:14:00,46.6,34.7,30.25,SSW,197,6.0,7.0,63,0.00,,,0.00,meteohub,2013-01-11 20:14:00,
2013-01-11 12:19:00,46.8,34.9,30.25,South,189,0.0,6.0,63,0.00,,,0.00,meteohub,2013-01-11 20:19:00,
2013-01-11 12:24:00,46.9,34.5,30.25,South,189,6.0,6.0,62,0.00,,,0.00,meteohub,2013-01-11 20:24:00,
2013-01-11 12:29:00,46.9,35.4,30.24,SSW,193,2.0,6.0,64,0.00,,,0.00,meteohub,2013-01-11 20:29:00,
2013-01-11 12:34:00,47.5,35.6,30.24,SSE,167,4.0,8.0,63,0.00,,,0.00,meteohub,2013-01-11 20:34:00,
2013-01-11 12:39:00,47.3,35.8,30.24,SSW,200,6.0,8.0,64,0.00,,,0.00,meteohub,2013-01-11 20:39:00,
2013-01-11 12:44:00,47.5,35.6,30.24,SSW,202,4.0,8.0,63,0.00,,,0.00,meteohub,2013-01-11 20:44:00,
2013-01-11 12:49:00,47.7,35.2,30.23,SSW,208,5.0,7.0,62,0.00,,,0.00,meteohub,2013-01-11 20:49:00,
2013-01-11 12:54:00,47.8,35.8,30.23,SSW,207,4.0,7.0,63,0.00,,,0.00,meteohub,2013-01-11 20:54:00,
2013-01-11 12:59:00,48.0,36.0,30.22,South,182,6.0,7.0,63,0.00,,,0.00,meteohub,2013-01-11 20:59:00,
2013-01-11 13:04:00,48.2,36.1,30.23,South,181,3.0,8.0,63,0.00,,,0.00,meteohub,2013-01-11 21:04:00,
2013-01-11 13:09:00,48.2,36.1,30.22,South,181,4.0,8.0,63,0.00,,,0.00,meteohub,2013-01-11 21:09:00,
2013-01-11 13:14:00,47.8,35.8,30.22,SSW,207,7.0,8.0,63,0.00,,,0.00,meteohub,2013-01-11 21:14:00,
2013-01-11 13:19:00,47.7,36.1,30.22,SSW,204,3.0,8.0,64,0.00,,,0.00,meteohub,2013-01-11 21:19:00,
2013-01-11 13:24:00,47.7,36.1,30.22,SSE,158,4.0,8.0,64,0.00,,,0.00,meteohub,2013-01-11 21:24:00,
2013-01-11 13:30:00,47.7,36.5,30.22,SSE,165,3.0,8.0,65,0.00,,,0.00,meteohub,2013-01-11 21:30:00,
2013-01-11 13:35:00,47.7,36.9,30.22,SSE,152,2.0,7.0,66,0.00,,,0.00,meteohub,2013-01-11 21:35:00,
2013-01-11 13:40:00,47.8,36.7,30.22,South,182,2.0,7.0,65,0.00,,,0.00,meteohub,2013-01-11 21:40:00,
2013-01-11 13:45:00,48.4,37.6,30.22,SSW,193,5.0,8.0,66,0.00,,,0.00,meteohub,2013-01-11 21:45:00,
2013-01-11 13:50:00,48.7,37.6,30.22,SSW,195,4.0,8.0,65,0.00,,,0.00,meteohub,2013-01-11 21:50:00,
2013-01-11 13:55:00,49.5,37.8,30.21,SSW,211,4.0,8.0,64,0.00,,,0.00,meteohub,2013-01-11 21:55:00,
2013-01-11 14:00:00,49.5,37.4,30.21,SSW,202,5.0,7.0,63,0.00,,,0.00,meteohub,2013-01-11 22:00:00,
2013-01-11 14:05:00,49.5,38.1,30.21,South,189,1.0,7.0,65,0.00,,,0.00,meteohub,2013-01-11 22:05:00,
2013-01-11 14:10:00,49.8,38.5,30.21,SSE,160,2.0,7.0,65,0.00,,,0.00,meteohub,2013-01-11 22:10:00,
2013-01-11 14:15:00,50.0,38.7,30.21,South,183,5.0,7.0,65,0.00,,,0.00,meteohub,2013-01-11 22:15:00,
2013-01-11 14:20:00,50.2,38.8,30.20,South,187,4.0,8.0,65,0.00,,,0.00,meteohub,2013-01-11 22:20:00,
2013-01-11 14:25:00,50.0,38.7,30.20,SSW,196,6.0,8.0,65,0.00,,,0.00,meteohub,2013-01-11 22:25:00,
2013-01-11 14:30:00,50.2,38.8,30.20,SSW,205,5.0,8.0,65,0.00,,,0.00,meteohub,2013-01-11 22:30:00,
2013-01-11 14:35:00,50.5,39.9,30.20,South,191,4.0,8.0,67,0.00,,,0.00,meteohub,2013-01-11 22:35:00,
2013-01-11 14:40:00,50.5,39.6,30.19,SSW,199,3.0,8.0,66,0.00,,,0.00,meteohub,2013-01-11 22:40:00,
2013-01-11 14:45:00,50.5,39.2,30.19,South,177,5.0,8.0,65,0.00,,,0.00,meteohub,2013-01-11 22:45:00,
2013-01-11 14:50:00,50.4,39.0,30.19,WSW,238,9.0,9.0,65,0.00,,,0.00,meteohub,2013-01-11 22:50:00,
2013-01-11 14:55:00,50.9,39.2,30.19,WNW,303,4.0,10.0,64,0.00,,,0.00,meteohub,2013-01-11 22:55:00,
2013-01-11 15:00:00,51.3,38.7,30.19,WSW,241,9.0,10.0,62,0.00,,,0.00,meteohub,2013-01-11 23:00:00,
2013-01-11 15:05:00,50.9,38.8,30.19,West,272,1.0,10.0,63,0.00,,,0.00,meteohub,2013-01-11 23:05:00,
2013-01-11 15:11:00,51.3,39.6,30.19,SW,226,5.0,10.0,64,0.00,,,0.00,meteohub,2013-01-11 23:11:00,
2013-01-11 15:16:00,51.4,39.2,30.19,SW,231,5.0,10.0,63,0.00,,,0.00,meteohub,2013-01-11 23:16:00,
2013-01-11 15:21:00,51.4,39.2,30.19,South,179,3.0,9.0,63,0.00,,,0.00,meteohub,2013-01-11 23:21:00,
2013-01-11 15:26:00,51.4,39.2,30.19,North,359,4.0,9.0,63,0.00,,,0.00,meteohub,2013-01-11 23:26:00,
2013-01-11 15:31:00,51.6,39.4,30.19,WNW,301,5.0,9.0,63,0.00,,,0.00,meteohub,2013-01-11 23:31:00,
2013-01-11 15:36:00,52.0,39.4,30.19,WNW,298,11.0,12.0,62,0.00,,,0.00,meteohub,2013-01-11 23:36:00,
2013-01-11 15:41:00,51.6,39.4,30.19,NW,314,7.0,12.0,63,0.00,,,0.00,meteohub,2013-01-11 23:41:00,
2013-01-11 15:46:00,51.4,39.7,30.19,NW,312,14.0,14.0,64,0.00,,,0.00,meteohub,2013-01-11 23:46:00,
2013-01-11 15:51:00,51.3,39.0,30.19,NW,314,7.0,14.0,63,0.00,,,0.00,meteohub,2013-01-11 23:51:00,
2013-01-11 15:56:00,51.3,39.0,30.19,NNW,330,9.0,14.0,63,0.00,,,0.00,meteohub,2013-01-11 23:56:00,
2013-01-11 16:01:00,51.1,39.4,30.19,NW,316,11.0,14.0,64,0.00,,,0.00,meteohub,2013-01-12 00:01:00,
2013-01-11 16:06:00,50.7,39.4,30.19,WNW,301,8.0,15.0,65,0.00,,,0.00,meteohub,2013-01-12 00:06:00,
2013-01-11 16:11:00,50.7,39.4,30.19,NW,320,4.0,15.0,65,0.00,,,0.00,meteohub,2013-01-12 00:11:00,
2013-01-11 16:16:00,50.5,39.2,30.19,North,359,5.0,15.0,65,0.00,,,0.00,meteohub,2013-01-12 00:16:00,
2013-01-11 16:21:00,50.5,39.6,30.19,North,359,7.0,15.0,66,0.00,,,0.00,meteohub,2013-01-12 00:21:00,
2013-01-11 16:26:00,50.4,39.4,30.19,NW,326,6.0,13.0,66,0.00,,,0.00,meteohub,2013-01-12 00:26:00,
2013-01-11 16:31:00,50.2,39.6,30.18,NW,321,9.0,12.0,67,0.00,,,0.00,meteohub,2013-01-12 00:31:00,
2013-01-11 16:36:00,50.2,40.1,30.19,NW,316,5.0,12.0,68,0.00,,,0.00,meteohub,2013-01-12 00:36:00,
2013-01-11 16:41:00,50.0,39.9,30.18,NW,318,3.0,11.0,68,0.00,,,0.00,meteohub,2013-01-12 00:41:00,
2013-01-11 16:47:00,50.2,40.1,30.18,NW,316,4.0,10.0,68,0.00,,,0.00,meteohub,2013-01-12 00:47:00,
2013-01-11 16:52:00,49.8,39.4,30.19,North,359,3.0,8.0,67,0.00,,,0.00,meteohub,2013-01-12 00:52:00,
2013-01-11 16:57:00,49.6,39.9,30.18,West,274,8.0,9.0,69,0.00,,,0.00,meteohub,2013-01-12 00:57:00,
2013-01-11 17:02:00,49.3,39.9,30.18,North,359,6.0,9.0,70,0.00,,,0.00,meteohub,2013-01-12 01:02:00,
2013-01-11 17:07:00,48.7,39.7,30.18,WNW,293,10.0,10.0,71,0.00,,,0.00,meteohub,2013-01-12 01:07:00,
2013-01-11 17:12:00,48.4,39.7,30.18,NW,306,9.0,12.0,72,0.00,,,0.00,meteohub,2013-01-12 01:12:00,
2013-01-11 17:17:00,48.4,40.1,30.18,NW,317,4.0,13.0,73,0.00,,,0.00,meteohub,2013-01-12 01:17:00,
2013-01-11 17:22:00,48.0,39.7,30.18,WNW,288,7.0,13.0,73,0.00,,,0.00,meteohub,2013-01-12 01:22:00,
2013-01-11 17:27:00,48.0,40.1,30.19,WNW,282,10.0,13.0,74,0.00,,,0.00,meteohub,2013-01-12 01:27:00,
2013-01-11 17:32:00,47.8,39.9,30.19,WNW,288,9.0,13.0,74,0.00,,,0.00,meteohub,2013-01-12 01:32:00,
2013-01-11 17:37:00,47.7,40.1,30.19,WNW,289,7.0,13.0,75,0.00,,,0.00,meteohub,2013-01-12 01:37:00,
2013-01-11 17:42:00,47.7,40.1,30.19,WNW,289,11.0,13.0,75,0.00,,,0.00,meteohub,2013-01-12 01:42:00,
2013-01-11 17:47:00,47.3,40.1,30.19,West,267,9.0,15.0,76,0.00,,,0.00,meteohub,2013-01-12 01:47:00,
2013-01-11 17:52:00,47.1,40.3,30.19,WNW,300,8.0,15.0,77,0.00,,,0.00,meteohub,2013-01-12 01:52:00,
2013-01-11 17:57:00,46.9,40.1,30.19,WNW,287,6.0,16.0,77,0.00,,,0.00,meteohub,2013-01-12 01:57:00,
2013-01-11 18:02:00,46.9,40.5,30.19,West,273,6.0,16.0,78,0.00,,,0.00,meteohub,2013-01-12 02:02:00,
2013-01-11 18:07:00,46.9,40.5,30.19,WNW,293,9.0,16.0,78,0.00,,,0.00,meteohub,2013-01-12 02:07:00,
2013-01-11 18:12:00,46.8,40.3,30.19,WNW,296,6.0,16.0,78,0.00,,,0.00,meteohub,2013-01-12 02:12:00,
2013-01-11 18:17:00,46.8,40.6,30.19,WNW,286,3.0,13.0,79,0.00,,,0.00,meteohub,2013-01-12 02:17:00,
2013-01-11 18:23:00,46.8,40.6,30.19,WNW,298,2.0,13.0,79,0.00,,,0.00,meteohub,2013-01-12 02:23:00,
2013-01-11 18:28:00,46.6,40.5,30.19,West,274,12.0,13.0,79,0.00,,,0.00,meteohub,2013-01-12 02:28:00,
2013-01-11 18:33:00,46.6,40.8,30.19,NW,311,8.0,13.0,80,0.00,,,0.00,meteohub,2013-01-12 02:33:00,
2013-01-11 18:38:00,46.6,40.8,30.19,NW,312,8.0,13.0,80,0.00,,,0.00,meteohub,2013-01-12 02:38:00,
2013-01-11 18:43:00,46.6,40.8,30.19,WNW,291,6.0,14.0,80,0.00,,,0.00,meteohub,2013-01-12 02:43:00,
2013-01-11 18:48:00,46.6,40.8,30.19,WNW,297,1.0,14.0,80,0.00,,,0.00,meteohub,2013-01-12 02:48:00,
2013-01-11 18:53:00,46.6,40.8,30.19,WNW,295,4.0,14.0,80,0.00,,,0.00,meteohub,2013-01-12 02:53:00,
2013-01-11 18:58:00,46.2,40.5,30.18,WNW,296,1.0,12.0,80,0.00,,,0.00,meteohub,2013-01-12 02:58:00,
2013-01-11 19:03:00,46.2,40.5,30.18,WNW,297,2.0,7.0,80,0.00,,,0.00,meteohub,2013-01-12 03:03:00,
2013-01-11 19:08:00,46.0,40.3,30.18,WNW,297,1.0,5.0,80,0.00,,,0.00,meteohub,2013-01-12 03:08:00,
2013-01-11 19:13:00,46.0,40.3,30.18,WNW,297,0.0,3.0,80,0.00,,,0.00,meteohub,2013-01-12 03:13:00,
2013-01-11 19:18:00,45.7,39.9,30.18,WNW,297,0.0,3.0,80,0.00,,,0.00,meteohub,2013-01-12 03:18:00,
2013-01-11 19:23:00,45.3,39.9,30.18,WNW,297,0.0,3.0,81,0.00,,,0.00,meteohub,2013-01-12 03:23:00,
2013-01-11 19:28:00,45.1,39.7,30.18,WNW,297,0.0,1.0,81,0.00,,,0.00,meteohub,2013-01-12 03:28:00,
2013-01-11 19:33:00,45.0,39.7,30.18,WNW,297,1.0,1.0,82,0.00,,,0.00,meteohub,2013-01-12 03:33:00,
2013-01-11 19:39:00,44.6,39.7,30.18,WNW,297,1.0,2.0,83,0.00,,,0.00,meteohub,2013-01-12 03:39:00,
2013-01-11 19:44:00,44.2,39.4,30.18,WNW,297,0.0,2.0,83,0.00,,,0.00,meteohub,2013-01-12 03:44:00,
2013-01-11 19:49:00,44.1,39.6,30.19,WNW,297,2.0,2.0,84,0.00,,,0.00,meteohub,2013-01-12 03:49:00,
2013-01-11 19:54:00,43.9,39.0,30.19,NNW,348,3.0,3.0,83,0.00,,,0.00,meteohub,2013-01-12 03:54:00,
2013-01-11 19:59:00,43.5,39.0,30.19,North,359,3.0,3.0,84,0.00,,,0.00,meteohub,2013-01-12 03:59:00,
2013-01-11 20:04:00,43.2,38.7,30.19,North,359,0.0,4.0,84,0.00,,,0.00,meteohub,2013-01-12 04:04:00,
2013-01-11 20:09:00,43.0,38.5,30.19,North,359,1.0,4.0,84,0.00,,,0.00,meteohub,2013-01-12 04:09:00,
2013-01-11 20:14:00,42.8,38.7,30.19,North,359,3.0,4.0,85,0.00,,,0.00,meteohub,2013-01-12 04:14:00,
2013-01-11 20:19:00,42.8,38.7,30.20,NNE,32,5.0,5.0,85,0.00,,,0.00,meteohub,2013-01-12 04:19:00,
2013-01-11 20:24:00,43.0,38.8,30.20,NNE,18,4.0,6.0,85,0.00,,,0.00,meteohub,2013-01-12 04:24:00,
2013-01-11 20:29:00,43.3,39.4,30.20,NNE,33,5.0,7.0,86,0.00,,,0.00,meteohub,2013-01-12 04:29:00,
2013-01-11 20:34:00,43.5,39.6,30.20,NNE,12,4.0,9.0,86,0.00,,,0.00,meteohub,2013-01-12 04:34:00,
2013-01-11 20:39:00,43.5,39.6,30.21,North,359,4.0,9.0,86,0.00,,,0.00,meteohub,2013-01-12 04:39:00,
2013-01-11 20:45:00,43.5,39.6,30.21,NNW,348,4.0,8.0,86,0.00,,,0.00,meteohub,2013-01-12 04:45:00,
2013-01-11 20:50:00,43.5,39.6,30.20,NNW,333,1.0,8.0,86,0.00,,,0.00,meteohub,2013-01-12 04:50:00,
2013-01-11 20:55:00,43.5,39.6,30.20,NNW,335,2.0,7.0,86,0.00,,,0.00,meteohub,2013-01-12 04:55:00,
2013-01-11 21:00:00,43.3,39.4,30.20,NNW,335,2.0,6.0,86,0.00,,,0.00,meteohub,2013-01-12 05:00:00,
2013-01-11 21:02:00,43.3,39.4,30.20,NNW,334,2.0,6.0,86,0.00,,,0.00,meteohub,2013-01-12 05:02:00,
2013-01-11 21:04:00,43.3,39.4,30.20,NNW,333,4.0,6.0,86,0.00,,,0.00,meteohub,2013-01-12 05:04:00,
2013-01-11 21:09:00,43.3,39.4,30.20,NNW,334,3.0,5.0,86,0.00,,,0.00,meteohub,2013-01-12 05:09:00,
2013-01-11 21:14:00,43.2,39.2,30.20,NNW,333,4.0,4.0,86,0.00,,,0.00,meteohub,2013-01-12 05:14:00,
2013-01-11 21:19:00,43.0,39.4,30.21,NNW,336,3.0,4.0,87,0.00,,,0.00,meteohub,2013-01-12 05:19:00,
2013-01-11 21:24:00,43.0,39.4,30.21,NNW,337,3.0,4.0,87,0.00,,,0.00,meteohub,2013-01-12 05:24:00,
2013-01-11 21:29:00,43.0,39.4,30.21,NNW,336,0.0,5.0,87,0.00,,,0.00,meteohub,2013-01-12 05:29:00,
2013-01-11 21:35:00,42.6,39.0,30.21,NNW,337,0.0,5.0,87,0.00,,,0.00,meteohub,2013-01-12 05:35:00,
2013-01-11 21:40:00,42.6,39.0,30.21,NNW,337,2.0,4.0,87,0.00,,,0.00,meteohub,2013-01-12 05:40:00,
2013-01-11 21:45:00,42.6,38.7,30.21,NNW,337,0.0,3.0,86,0.00,,,0.00,meteohub,2013-01-12 05:45:00,
2013-01-11 21:50:00,42.4,38.8,30.22,NNW,337,1.0,3.0,87,0.00,,,0.00,meteohub,2013-01-12 05:50:00,
2013-01-11 21:55:00,42.3,38.7,30.22,NNW,340,2.0,3.0,87,0.00,,,0.00,meteohub,2013-01-12 05:55:00,
2013-01-11 22:00:00,42.1,38.5,30.22,NNW,343,3.0,4.0,87,0.00,,,0.00,meteohub,2013-01-12 06:00:00,
2013-01-11 22:05:00,41.7,38.1,30.22,NNW,343,2.0,4.0,87,0.00,,,0.00,meteohub,2013-01-12 06:05:00,
2013-01-11 22:10:00,41.7,38.1,30.22,North,8,3.0,4.0,87,0.00,,,0.00,meteohub,2013-01-12 06:10:00,
2013-01-11 22:15:00,41.5,37.9,30.22,NNE,12,4.0,5.0,87,0.00,,,0.00,meteohub,2013-01-12 06:15:00,
2013-01-11 22:20:00,41.4,37.8,30.22,NNE,12,4.0,5.0,87,0.00,,,0.00,meteohub,2013-01-12 06:20:00,
2013-01-11 22:25:00,41.2,37.6,30.22,North,11,4.0,5.0,87,0.00,,,0.00,meteohub,2013-01-12 06:25:00,
2013-01-11 22:30:00,41.2,37.6,30.22,North,11,4.0,6.0,87,0.00,,,0.00,meteohub,2013-01-12 06:30:00,
2013-01-11 22:35:00,41.2,37.6,30.22,NNE,12,5.0,6.0,87,0.00,,,0.00,meteohub,2013-01-12 06:35:00,
2013-01-11 22:40:00,41.2,37.9,30.22,NNE,13,4.0,6.0,88,0.00,,,0.00,meteohub,2013-01-12 06:40:00,
2013-01-11 22:45:00,41.4,38.1,30.22,NNE,16,6.0,6.0,88,0.00,,,0.00,meteohub,2013-01-12 06:45:00,
2013-01-11 22:50:00,41.4,38.1,30.22,NNE,17,4.0,6.0,88,0.00,,,0.00,meteohub,2013-01-12 06:50:00,
2013-01-11 22:55:00,41.4,38.1,30.23,NNE,16,2.0,6.0,88,0.00,,,0.00,meteohub,2013-01-12 06:55:00,
2013-01-11 23:00:00,41.4,38.1,30.23,NNW,332,1.0,6.0,88,0.00,,,0.00,meteohub,2013-01-12 07:00:00,
2013-01-11 23:06:00,41.2,37.9,30.23,North,359,3.0,5.0,88,0.00,,,0.00,meteohub,2013-01-12 07:06:00,
2013-01-11 23:11:00,40.8,37.6,30.23,NNW,337,4.0,5.0,88,0.00,,,0.00,meteohub,2013-01-12 07:11:00,
2013-01-11 23:16:00,40.5,37.2,30.23,NNW,336,4.0,5.0,88,0.00,,,0.00,meteohub,2013-01-12 07:16:00,
2013-01-11 23:21:00,40.3,37.0,30.23,North,350,5.0,6.0,88,0.00,,,0.00,meteohub,2013-01-12 07:21:00,
2013-01-11 23:26:00,40.5,37.4,30.23,North,359,1.0,6.0,89,0.00,,,0.00,meteohub,2013-01-12 07:26:00,
2013-01-11 23:31:00,40.5,37.4,30.24,North,9,2.0,7.0,89,0.00,,,0.00,meteohub,2013-01-12 07:31:00,
2013-01-11 23:36:00,40.5,37.2,30.24,North,9,3.0,7.0,88,0.00,,,0.00,meteohub,2013-01-12 07:36:00,
2013-01-11 23:41:00,40.5,37.2,30.24,NNE,18,2.0,7.0,88,0.00,,,0.00,meteohub,2013-01-12 07:41:00,
2013-01-11 23:46:00,40.3,36.7,30.23,NNE,16,3.0,6.0,87,0.00,,,0.00,meteohub,2013-01-12 07:46:00,
2013-01-11 23:51:00,40.3,36.7,30.23,North,4,2.0,6.0,87,0.00,,,0.00,meteohub,2013-01-12 07:51:00,
2013-01-11 23:56:00,39.9,36.3,30.23,North,4,3.0,6.0,87,0.00,,,0.00,meteohub,2013-01-12 07:56:00,